When you browse on this site, cookies collect data to enhance your experience and personalize the content and advertising you see.
Visit our Privacy Policy to learn more. By continuing to use the site, you agree to this use of cookies and data.
  • In Latvia
  • List of Countries
  • For 7 days
  • Water Temperature
  • Satellite Maps
  • Weather Map
  • Weather Widgets
  • user-avatar
    Login

    Hourly Weather Brisbane

    Today, 20 June, Thursday

    Time Temperature Precipitation Wind Pressure Humidity
    00:00 +15°C° 0 mm 2 mps 763 mmHg 84%
    01:00 +15°C° 0 mm 2 mps 763 mmHg 85%
    02:00 +14°C° 0 mm 2 mps 763 mmHg 85%
    03:00 +14°C° 0 mm 2 mps 762 mmHg 86%
    04:00 +14°C° 0 mm 2 mps 762 mmHg 86%
    05:00 +13°C° 0 mm 2 mps 763 mmHg 86%
    06:00 +13°C° 0 mm 2 mps 763 mmHg 85%
    07:00 +13°C° 0 mm 2 mps 764 mmHg 85%
    08:00 +15°C° 0 mm 2 mps 764 mmHg 77%
    09:00 +16°C° 0 mm 2 mps 764 mmHg 68%
    10:00 +18°C° 0 mm 3 mps 764 mmHg 60%
    11:00 +18°C° 0 mm 3 mps 763 mmHg 59%
    12:00 +19°C° 0 mm 3 mps 763 mmHg 57%
    13:00 +20°C° 0 mm 3 mps 762 mmHg 56%
    14:00 +20°C° 0 mm 3 mps 762 mmHg 59%
    15:00 +19°C° 0 mm 3 mps 762 mmHg 62%
    16:00 +19°C° 0 mm 3 mps 762 mmHg 65%
    17:00 +18°C° 0 mm 3 mps 762 mmHg 67%
    18:00 +18°C° 0 mm 2 mps 763 mmHg 69%
    19:00 +17°C° 0 mm 2 mps 763 mmHg 71%
    20:00 +17°C° 0 mm 2 mps 763 mmHg 73%
    21:00 +16°C° 0 mm 2 mps 763 mmHg 76%
    22:00 +15°C° 0 mm 2 mps 763 mmHg 79%
    23:00 +15°C° 0 mm 2 mps 763 mmHg 80%

    Tomorrow, 21 June, Friday

    Time Temperature Precipitation Wind Pressure Humidity
    00:00 +15°C° 0 mm 2 mps 763 mmHg 81%
    01:00 +14°C° 0 mm 2 mps 762 mmHg 82%
    02:00 +14°C° 0 mm 2 mps 762 mmHg 82%
    03:00 +14°C° 0 mm 2 mps 762 mmHg 82%
    04:00 +14°C° 0 mm 2 mps 762 mmHg 83%
    05:00 +14°C° 0 mm 2 mps 762 mmHg 83%
    06:00 +14°C° 0 mm 2 mps 762 mmHg 83%
    07:00 +13°C° 0 mm 2 mps 762 mmHg 83%
    08:00 +15°C° 0 mm 2 mps 762 mmHg 75%
    09:00 +17°C° 0 mm 3 mps 762 mmHg 67%
    10:00 +19°C° 0 mm 3 mps 763 mmHg 59%
    11:00 +20°C° 0 mm 3 mps 762 mmHg 53%
    12:00 +21°C° 0 mm 3 mps 761 mmHg 48%
    13:00 +22°C° 0 mm 3 mps 761 mmHg 42%
    14:00 +22°C° 0 mm 3 mps 761 mmHg 42%
    15:00 +21°C° 0 mm 2 mps 761 mmHg 43%
    16:00 +21°C° 0 mm 2 mps 761 mmHg 43%
    17:00 +19°C° 0.1 mm 2 mps 761 mmHg 47%
    18:00 +17°C° 0.1 mm 2 mps 762 mmHg 50%
    19:00 +15°C° 0.1 mm 2 mps 763 mmHg 54%
    20:00 +15°C° 0.1 mm 2 mps 763 mmHg 57%
    21:00 +13°C° 0.1 mm 3 mps 763 mmHg 59%
    22:00 +13°C° 0.1 mm 3 mps 764 mmHg 62%
    23:00 +12°C° 0 mm 3 mps 763 mmHg 65%

    Day after tomorrow, 22 June, Saturday

    Time Temperature Precipitation Wind Pressure Humidity
    00:00 +11°C° 0 mm 3 mps 763 mmHg 67%
    01:00 +11°C° 0 mm 3 mps 763 mmHg 70%
    02:00 +10°C° 0 mm 3 mps 763 mmHg 72%
    03:00 +10°C° 0 mm 3 mps 763 mmHg 73%
    04:00 +10°C° 0 mm 3 mps 763 mmHg 74%
    05:00 +9°C° 0 mm 3 mps 763 mmHg 70%
    06:00 +9°C° 0 mm 2 mps 764 mmHg 66%
    07:00 +9°C° 0 mm 2 mps 764 mmHg 62%
    08:00 +12°C° 0 mm 2 mps 764 mmHg 56%
    09:00 +14°C° 0 mm 2 mps 764 mmHg 50%
    10:00 +15°C° 0 mm 2 mps 764 mmHg 44%
    11:00 +17°C° 0 mm 2 mps 764 mmHg 40%
    12:00 +18°C° 0 mm 2 mps 763 mmHg 37%
    13:00 +20°C° 0 mm 2 mps 762 mmHg 33%
    14:00 +19°C° 0 mm 3 mps 762 mmHg 35%
    15:00 +19°C° 0 mm 3 mps 763 mmHg 37%
    16:00 +19°C° 0 mm 3 mps 763 mmHg 39%
    17:00 +17°C° 0 mm 3 mps 763 mmHg 48%
    18:00 +16°C° 0 mm 3 mps 764 mmHg 56%
    19:00 +13°C° 0 mm 3 mps 764 mmHg 65%
    20:00 +13°C° 0 mm 3 mps 764 mmHg 68%
    21:00 +12°C° 0 mm 3 mps 765 mmHg 72%
    22:00 +12°C° 0 mm 3 mps 765 mmHg 75%
    23:00 +11°C° 0 mm 3 mps 765 mmHg 78%

    23 June, Sunday

    Time Temperature Precipitation Wind Pressure Humidity
    00:00 +12°C° 0 mm 2 mps 764 mmHg 80%
    01:00 +10°C° 0 mm 2 mps 764 mmHg 82%
    02:00 +10°C° 0 mm 2 mps 764 mmHg 82%
    03:00 +10°C° 0 mm 2 mps 764 mmHg 83%
    04:00 +9°C° 0 mm 2 mps 764 mmHg 83%
    05:00 +9°C° 0 mm 2 mps 764 mmHg 82%
    06:00 +9°C° 0 mm 2 mps 765 mmHg 82%
    07:00 +9°C° 0 mm 2 mps 765 mmHg 81%
    08:00 +12°C° 0 mm 2 mps 765 mmHg 73%
    09:00 +13°C° 0 mm 3 mps 765 mmHg 65%
    10:00 +16°C° 0 mm 3 mps 765 mmHg 57%
    11:00 +17°C° 0 mm 3 mps 764 mmHg 54%
    12:00 +18°C° 0 mm 3 mps 764 mmHg 51%
    13:00 +19°C° 0 mm 3 mps 763 mmHg 48%
    14:00 +19°C° 0.1 mm 3 mps 763 mmHg 51%
    15:00 +19°C° 0.1 mm 3 mps 763 mmHg 53%
    16:00 +18°C° 0.1 mm 3 mps 763 mmHg 56%
    17:00 +17°C° 0.3 mm 3 mps 764 mmHg 60%
    18:00 +16°C° 0.3 mm 3 mps 764 mmHg 64%
    19:00 +14°C° 0.3 mm 3 mps 765 mmHg 69%
    20:00 +14°C° 0.1 mm 3 mps 765 mmHg 71%
    21:00 +13°C° 0.1 mm 3 mps 765 mmHg 73%
    22:00 +14°C° 0.1 mm 2 mps 765 mmHg 74%
    23:00 +13°C° 0 mm 2 mps 765 mmHg 77%

    24 June, Monday

    Time Temperature Precipitation Wind Pressure Humidity
    00:00 +13°C° 0 mm 2 mps 765 mmHg 79%
    01:00 +12°C° 0 mm 2 mps 765 mmHg 81%
    02:00 +12°C° 0 mm 2 mps 765 mmHg 82%
    03:00 +11°C° 0 mm 3 mps 765 mmHg 82%
    04:00 +10°C° 0 mm 3 mps 764 mmHg 83%
    05:00 +10°C° 0 mm 3 mps 765 mmHg 82%
    06:00 +10°C° 0 mm 3 mps 765 mmHg 80%
    07:00 +10°C° 0 mm 3 mps 766 mmHg 79%
    08:00 +12°C° 0 mm 3 mps 766 mmHg 72%
    09:00 +14°C° 0 mm 3 mps 766 mmHg 65%
    10:00 +17°C° 0 mm 3 mps 766 mmHg 59%
    11:00 +18°C° 0.1 mm 4 mps 765 mmHg 57%
    12:00 +17°C° 0.1 mm 5 mps 765 mmHg 55%
    13:00 +19°C° 0.1 mm 5 mps 764 mmHg 53%
    14:00 +19°C° 0.2 mm 5 mps 764 mmHg 54%
    15:00 +17°C° 0.2 mm 5 mps 764 mmHg 56%
    16:00 +18°C° 0.2 mm 4 mps 764 mmHg 58%
    17:00 +17°C° 0.1 mm 4 mps 765 mmHg 63%
    18:00 +14°C° 0.1 mm 4 mps 765 mmHg 69%
    19:00 +13°C° 0.1 mm 3 mps 766 mmHg 74%
    20:00 +13°C° 0 mm 3 mps 766 mmHg 77%
    21:00 +12°C° 0 mm 3 mps 766 mmHg 80%
    22:00 +12°C° 0 mm 3 mps 767 mmHg 83%
    23:00 +11°C° 0 mm 3 mps 766 mmHg 84%

    25 June, Tuesday

    Time Temperature Precipitation Wind Pressure Humidity
    00:00 +11°C° 0 mm 3 mps 766 mmHg 85%
    01:00 +11°C° 0 mm 3 mps 766 mmHg 86%
    02:00 +10°C° 0 mm 3 mps 766 mmHg 86%
    03:00 +10°C° 0 mm 3 mps 766 mmHg 86%
    04:00 +10°C° 0 mm 3 mps 765 mmHg 86%
    05:00 +10°C° 0 mm 2 mps 766 mmHg 86%
    06:00 +10°C° 0 mm 2 mps 766 mmHg 86%
    07:00 +10°C° 0 mm 2 mps 767 mmHg 86%
    08:00 +12°C° 0 mm 3 mps 767 mmHg 77%
    09:00 +14°C° 0 mm 3 mps 767 mmHg 69%
    10:00 +17°C° 0 mm 4 mps 767 mmHg 61%
    11:00 +18°C° 0 mm 4 mps 766 mmHg 58%
    12:00 +19°C° 0 mm 4 mps 766 mmHg 55%
    13:00 +20°C° 0 mm 5 mps 765 mmHg 52%
    14:00 +19°C° 0 mm 4 mps 765 mmHg 54%
    15:00 +19°C° 0 mm 4 mps 765 mmHg 56%
    16:00 +19°C° 0 mm 4 mps 765 mmHg 58%
    17:00 +18°C° 0 mm 4 mps 766 mmHg 62%
    18:00 +17°C° 0 mm 4 mps 766 mmHg 67%
    19:00 +15°C° 0 mm 4 mps 767 mmHg 71%
    20:00 +14°C° 0 mm 3 mps 767 mmHg 74%
    21:00 +14°C° 0 mm 3 mps 767 mmHg 77%
    22:00 +13°C° 0 mm 3 mps 767 mmHg 81%
    23:00 +13°C° 0 mm 3 mps 767 mmHg 82%
    Show more